Regional Weather Roundup
Issued by NWS

Home | Current Version | Previous Version | Text Only | Print | Product List | Glossary On
Versions: 1 2 3 4 5 6 7 8 9 10 11 12 13 14 15 16 17 18 19 20 21 22 23 24 25 26 27 28 29 30 31 32 33 34 35 36 37 38 39 40 41 42 43 44 45 46 47 48 49 50
000
ASUS44 KMEG 302010
RWRTN
TENNESSEE HOURLY STATE WEATHER ROUNDUP
NATIONAL WEATHER SERVICE MEMPHIS TN
300 PM CDT SUN APR 30 2017

TNZ002-004-019-021-049-052-054-088>092-302100-
WEST TENNESSEE

CITY           SKY/WX    TMP DP  RH WIND       PRES   REMARKS
MEMPHIS INTL   CLOUDY    71  66  84 S21G28    29.70F
NWS MEMPHIS      N/A     71 N/A N/A MISG        N/A
JACKSON        CLOUDY    73  70  90 S10G17    29.73S
SOMERVILLE     CLOUDY    70  66  88 S9G20     29.71F
UNION CITY     PTSUNNY   72  68  88 S17G28    29.70R
BOLIVAR        SUNNY     72  68  88 S10G17    29.73F
HUNTINGDON     MOSUNNY   73  68  83 SE10G22   29.71F
LEXINGTON      MOSUNNY   72  66  83 VRB8G15   29.72F
SAVANNAH       MOSUNNY   72  68  88 S18G31    29.74F
$$

TNZ008-025-027-028-033-062-065-066-302100-
NORTH MIDDLE TENNESSEE

CITY           SKY/WX    TMP DP  RH WIND       PRES   REMARKS
NASHVILLE      HVY RAIN  77  63  61 S37G51    29.89R VSB 3/4
PORTLAND       PTSUNNY   81  64  57 S14G26    29.83F
CLARKSVILLE    LGT RAIN  75  65  70 S13G26    29.76F
SMYRNA         CLOUDY    81  64  56 S21G31    29.86F
COOKEVILLE     MOSUNNY   81  64  57 S17G31    29.91F
GALLATIN       CLOUDY    82  63  51 S17G26    29.87F
CROSSVILLE     CLOUDY    76  62  62 S14G26    30.00F
$$

TNZ061-075-076-078-094-096-097-302100-
SOUTH MIDDLE TENNESSEE

CITY           SKY/WX    TMP DP  RH WIND       PRES   REMARKS
FAYETTEVILLE   PTSUNNY   79  64  61 SW33G43   29.89F
TULLAHOMA      MOSUNNY   79  61  53 S16       29.92F
WINCHESTER     MOSUNNY   81  64  57 S22G39    29.92F
MCMINNVILLE    MOSUNNY   82  64  54 S12       29.93S
COLUMBIA       PTSUNNY  N/A N/A N/A SE14      29.84F
SHELBYVILLE    PTSUNNY   81  66  61 S15       29.90F
$$

TNZ017-018-042-046-047-302100-
NORTHEAST TENNESSEE

CITY           SKY/WX    TMP DP  RH WIND       PRES   REMARKS
TRI CITIES     PTSUNNY   83  59  44 SE10      30.04F
ELIZABETHTON   PTSUNNY   84  55  37 VRB7G15   30.05F
$$

TNZ012-013-036-069-073-074-302100-
CENTRAL EAST TENNESSEE

CITY           SKY/WX    TMP DP  RH WIND       PRES   REMARKS
KNOXVILLE      CLOUDY    83  56  39 S14       29.98
OAK RIDGE      PTSUNNY   84  57  39 S12G24    29.99F
DOWNTOWN KNOXV SUNNY     86  59  39 S12G18    29.98F
GATLINBURG     SUNNY     84  54  34 SW13G24   29.99F
MORRISTOWN     SUNNY     86  57  37 SW16      30.00F
JACKSBORO      SUNNY     82  63  51 S10G17    30.01F
$$

TNZ083-085-099-302100-
SOUTHEAST TENNESSEE

CITY           SKY/WX    TMP DP  RH WIND       PRES   REMARKS
CHATTANOOGA    CLOUDY    81  64  56 S15G28    29.98F
$$

SKY/WX REPORTED AS FAIR MEANS FEW OR NO CLOUDS BELOW
12 THOUSAND FEET.





USA.gov is the U.S. government's official web portal to all federal, state and local government web resources and services.